| time (UTC) | temp F | wind direction | speed MPH | gust MPH | rain 1hr in | rain 24hr in | rain mn in | humidity % | barometer mb |
| 20260901223023 | 65 | 303 | 4.0 | 0.0 | 0.00 | 0.00 | 0.01 | 64 | 1007.2 |
| 20260901221555 | 66 | 300 | 5.0 | 0.0 | 0.00 | 0.00 | 0.01 | 61 | 1007.4 |
| 20260901220012 | 66 | 292 | 4.0 | 0.0 | 0.00 | 0.00 | 0.00 | 58 | 1007.2 |
| 20260901214503 | 70 | 290 | 4.0 | 0.0 | 0.00 | 0.00 | 0.00 | 48 | 1007.4 |
| 20260901213047 | 70 | 305 | 5.0 | 0.0 | 0.00 | 0.00 | 0.00 | 48 | 1007.1 |
| 20260901211543 | 72 | 292 | 4.0 | 0.0 | 0.00 | 0.00 | 0.00 | 42 | 1007.2 |
| 20260901210026 | 74 | 307 | 0.0 | 0.0 | 0.00 | 0.00 | 0.00 | 41 | 1006.4 |
| 20260901204533 | 73 | 307 | 0.0 | 0.0 | 0.00 | 0.00 | 0.00 | 39 | 1006.4 |
| 20260901203009 | 73 | 307 | 0.0 | 0.0 | 0.00 | 0.00 | 0.00 | 39 | 1006.2 |
| 20260901201521 | 73 | 307 | 1.0 | 0.0 | 0.00 | 0.00 | 0.00 | 39 | 1006.1 |
| 20260901200106 | 74 | 308 | 4.0 | 0.0 | 0.00 | 0.00 | 0.00 | 38 | 1006.1 |
| 20260901194547 | 80 | 261 | 2.0 | 0.0 | 0.00 | 0.00 | 0.00 | 30 | 1005.9 |
| 20260901193057 | 81 | 267 | 3.0 | 0.0 | 0.00 | 0.00 | 0.00 | 23 | 1005.9 |
| 20260901191528 | 81 | 200 | 4.0 | 0.0 | 0.00 | 0.00 | 0.00 | 23 | 1005.9 |
| 20260901190031 | 80 | 293 | 3.0 | 0.0 | 0.00 | 0.00 | 0.00 | 26 | 1005.9 |
| 20260901184506 | 77 | 200 | 2.0 | 0.0 | 0.00 | 0.00 | 0.00 | 30 | 1006.0 |
| 20260901183005 | 77 | 203 | 5.0 | 0.0 | 0.00 | 0.00 | 0.00 | 29 | 1006.0 |
| 20260901181546 | 78 | 217 | 6.0 | 0.0 | 0.00 | 0.00 | 0.00 | 28 | 1005.8 |
| 20260901180045 | 79 | 175 | 3.0 | 0.0 | 0.00 | 0.00 | 0.00 | 29 | 1005.5 |
| 20260901174529 | 78 | 166 | 3.0 | 0.0 | 0.00 | 0.00 | 0.00 | 29 | 1005.5 |
| 20260901173022 | 76 | 168 | 1.0 | 0.0 | 0.00 | 0.00 | 0.00 | 32 | 1005.5 |
| 20260901171502 | 74 | 168 | 2.0 | 0.0 | 0.00 | 0.00 | 0.00 | 34 | 1005.5 |
| 20260901170100 | 73 | 217 | 0.0 | 0.0 | 0.00 | 0.00 | 0.00 | 36 | 1005.6 |
| 20260901164537 | 71 | 219 | 1.0 | 0.0 | 0.00 | 0.00 | 0.00 | 39 | 1005.8 |
| 20260901163034 | 69 | 219 | 1.0 | 0.0 | 0.00 | 0.00 | 0.00 | 43 | 1005.9 |
| 20260901161524 | 66 | 221 | 0.0 | 0.0 | 0.00 | 0.00 | 0.00 | 48 | 1005.9 |
| 20260901160015 | 63 | 221 | 0.0 | 0.0 | 0.00 | 0.00 | 0.00 | 53 | 1005.7 |
| 20260901154546 | 60 | 221 | 0.0 | 0.0 | 0.00 | 0.00 | 0.00 | 58 | 1005.8 |
| 20260901153042 | 59 | 221 | 0.0 | 0.0 | 0.00 | 0.00 | 0.00 | 61 | 1006.1 |
| 20260901151522 | 58 | 214 | 1.0 | 0.0 | 0.00 | 0.00 | 0.00 | 65 | 1006.1 |
| 20260901150018 | 55 | 5 | 0.0 | 0.0 | 0.00 | 0.00 | 0.00 | 71 | 1005.9 |
| 20260901144557 | 52 | 5 | 0.0 | 0.0 | 0.00 | 0.00 | 0.00 | 70 | 1006.4 |
| 20260901143057 | 52 | 5 | 0.0 | 0.0 | 0.00 | 0.00 | 0.00 | 76 | 1006.5 |
| 20260901141536 | 48 | 5 | 0.0 | 0.0 | 0.00 | 0.00 | 0.00 | 81 | 1006.6 |
| 20260901140030 | 45 | 5 | 0.0 | 0.0 | 0.00 | 0.00 | 0.00 | 81 | 1007.1 |
| 20260901134520 | 44 | 5 | 0.0 | 0.0 | 0.00 | 0.00 | 0.00 | 81 | 1007.0 |
| 20260901133013 | 44 | 5 | 0.0 | 0.0 | 0.00 | 0.00 | 0.00 | 79 | 1007.1 |
| 20260901131554 | 44 | 5 | 0.0 | 0.0 | 0.00 | 0.00 | 0.00 | 79 | 1007.0 |
| 20260901130107 | 44 | 5 | 0.0 | 0.0 | 0.00 | 0.00 | 0.00 | 78 | 1007.3 |
| 20260901124541 | 45 | 5 | 0.0 | 0.0 | 0.00 | 0.00 | 0.00 | 78 | 1007.2 |
| 20260901123036 | 45 | 5 | 0.0 | 0.0 | 0.00 | 0.00 | 0.00 | 78 | 1007.2 |
| 20260901121518 | 45 | 5 | 0.0 | 0.0 | 0.00 | 0.00 | 0.00 | 77 | 1007.2 |
| 20260901120016 | 45 | 5 | 0.0 | 0.0 | 0.00 | 0.00 | 0.00 | 77 | 1007.3 |
| 20260901114600 | 46 | 5 | 0.0 | 0.0 | 0.00 | 0.00 | 0.00 | 76 | 1007.5 |
| 20260901113130 | 47 | 5 | 0.0 | 0.0 | 0.00 | 0.00 | 0.00 | 76 | 1007.5 |
| 20260901111541 | 47 | 5 | 0.0 | 0.0 | 0.00 | 0.00 | 0.00 | 77 | 1007.7 |
| 20260901110052 | 46 | 5 | 0.0 | 0.0 | 0.00 | 0.00 | 0.00 | 77 | 1007.7 |
| 20260901104522 | 46 | 5 | 0.0 | 0.0 | 0.00 | 0.00 | 0.00 | 77 | 1007.7 |
| 20260901103022 | 46 | 5 | 0.0 | 0.0 | 0.00 | 0.00 | 0.00 | 77 | 1007.6 |
| 20260901101504 | 46 | 5 | 0.0 | 0.0 | 0.00 | 0.00 | 0.00 | 77 | 1007.4 |
| 20260901100007 | 46 | 5 | 0.0 | 0.0 | 0.00 | 0.00 | 0.00 | 77 | 1007.3 |
| 20260901094547 | 46 | 5 | 0.0 | 0.0 | 0.00 | 0.00 | 0.00 | 77 | 1007.5 |
| 20260901093045 | 45 | 5 | 0.0 | 0.0 | 0.00 | 0.00 | 0.00 | 74 | 1007.5 |
| 20260901091528 | 47 | 5 | 0.0 | 0.0 | 0.00 | 0.00 | 0.00 | 74 | 1007.3 |
| 20260901090030 | 46 | 5 | 0.0 | 0.0 | 0.00 | 0.00 | 0.00 | 73 | 1007.4 |
| 20260901084524 | 47 | 5 | 0.0 | 0.0 | 0.00 | 0.00 | 0.00 | 71 | 1007.6 |
| 20260901083009 | 49 | 5 | 0.0 | 0.0 | 0.00 | 0.00 | 0.00 | 72 | 1007.6 |
| 20260901081554 | 49 | 5 | 0.0 | 0.0 | 0.00 | 0.00 | 0.00 | 71 | 1007.6 |
| 20260901080048 | 49 | 5 | 0.0 | 0.0 | 0.00 | 0.00 | 0.00 | 71 | 1007.8 |
| 20260901074531 | 50 | 5 | 0.0 | 0.0 | 0.00 | 0.00 | 0.00 | 69 | 1007.9 |
| 20260901073032 | 50 | 5 | 0.0 | 0.0 | 0.00 | 0.00 | 0.00 | 68 | 1007.8 |
| 20260901071512 | 50 | 5 | 0.0 | 0.0 | 0.00 | 0.00 | 0.00 | 66 | 1008.0 |
| 20260901070012 | 52 | 5 | 0.0 | 0.0 | 0.00 | 0.00 | 0.00 | 66 | 1008.1 |
| 20260901064553 | 52 | 5 | 0.0 | 0.0 | 0.00 | 0.00 | 0.00 | 64 | 1008.1 |
| 20260901063052 | 54 | 5 | 0.0 | 0.0 | 0.00 | 0.00 | 0.00 | 62 | 1008.2 |
| 20260901061534 | 54 | 5 | 0.0 | 0.0 | 0.00 | 0.00 | 0.00 | 62 | 1008.3 |
| 20260901060034 | 55 | 5 | 0.0 | 0.0 | 0.00 | 0.00 | 0.00 | 61 | 1008.3 |
| 20260901054515 | 56 | 5 | 0.0 | 0.0 | 0.00 | 0.00 | 0.00 | 59 | 1008.4 |
| 20260901053018 | 57 | 5 | 0.0 | 0.0 | 0.00 | 0.00 | 0.00 | 58 | 1008.4 |
| 20260901051559 | 58 | 5 | 0.0 | 0.0 | 0.00 | 0.00 | 0.00 | 56 | 1008.5 |
| 20260901050055 | 58 | 5 | 0.0 | 0.0 | 0.00 | 0.00 | 0.00 | 55 | 1008.6 |
| 20260901044559 | 60 | 5 | 0.0 | 0.0 | 0.00 | 0.00 | 0.00 | 52 | 1008.7 |
| 20260901043040 | 61 | 5 | 0.0 | 0.0 | 0.00 | 0.00 | 0.00 | 49 | 1008.7 |
| 20260901041519 | 62 | 5 | 0.0 | 0.0 | 0.00 | 0.00 | 0.00 | 48 | 1008.9 |
| 20260901040019 | 64 | 5 | 0.0 | 0.0 | 0.00 | 0.00 | 0.00 | 45 | 1008.9 |
| 20260901034502 | 66 | 5 | 0.0 | 0.0 | 0.00 | 0.00 | 0.00 | 44 | 1008.9 |
| 20260901033002 | 67 | 5 | 0.0 | 0.0 | 0.00 | 0.00 | 0.00 | 41 | 1008.8 |
| 20260901031548 | 69 | 5 | 0.0 | 0.0 | 0.00 | 0.00 | 0.00 | 37 | 1008.9 |
| 20260901030043 | 71 | 5 | 0.0 | 0.0 | 0.00 | 0.00 | 0.00 | 36 | 1008.7 |
| 20260901024526 | 73 | 5 | 0.0 | 0.0 | 0.00 | 0.00 | 0.00 | 33 | 1008.6 |
| 20260901023026 | 74 | 5 | 0.0 | 0.0 | 0.00 | 0.00 | 0.00 | 32 | 1008.6 |
| 20260901021509 | 76 | 5 | 0.0 | 0.0 | 0.00 | 0.00 | 0.00 | 30 | 1008.7 |
| 20260901020027 | 77 | 5 | 0.0 | 0.0 | 0.00 | 0.00 | 0.00 | 28 | 1008.9 |
| 20260901014551 | 79 | 5 | 0.0 | 0.0 | 0.00 | 0.00 | 0.00 | 27 | 1008.8 |
| 20260901013047 | 80 | 5 | 0.0 | 0.0 | 0.00 | 0.00 | 0.00 | 25 | 1008.9 |
| 20260901011535 | 81 | 5 | 1.0 | 0.0 | 0.00 | 0.00 | 0.00 | 22 | 1008.9 |
| 20260901010027 | 82 | 5 | 1.0 | 0.0 | 0.00 | 0.00 | 0.00 | 21 | 1008.9 |
| 20260901004510 | 83 | 5 | 0.0 | 0.0 | 0.00 | 0.00 | 0.00 | 20 | 1009.1 |
| 20260901003008 | 83 | 5 | 0.0 | 0.0 | 0.00 | 0.00 | 0.00 | 19 | 1009.3 |
| 20260901001606 | 82 | 5 | 1.0 | 0.0 | 0.00 | 0.00 | 0.00 | 20 | 1009.6 |
| 20260901000052 | 83 | 5 | 1.0 | 0.0 | 0.00 | 0.00 | 0.00 | 19 | 1009.8 |
| 20260831234526 | 83 | 360 | 1.0 | 0.0 | 0.00 | 0.00 | 0.00 | 19 | 1009.9 |
| 20260831233038 | 83 | 350 | 2.0 | 0.0 | 0.00 | 0.00 | 0.00 | 19 | 1010.0 |
| 20260831231506 | 82 | 308 | 2.0 | 0.0 | 0.00 | 0.00 | 0.00 | 20 | 1010.2 |
| 20260831230004 | 83 | 276 | 1.0 | 0.0 | 0.00 | 0.00 | 0.00 | 19 | 1010.4 |
| 20260831224544 | 82 | 309 | 0.0 | 0.0 | 0.00 | 0.00 | 0.00 | 19 | 1010.7 |